GW3805 Weather Reports


time (UTC)temp
C
wind
direction
speed
KPH
gust
KPH
rain 1hr
cm
rain 24hr
cm
rain mn
cm
humidity
%
barometer
mb
20260906181132 30 313 3.2 3.2 0.00 0.00 0.03 70 1015.2
20260906180132 30 261 3.2 3.2 0.00 0.00 0.03 70 1015.2
20260906175132 30 203 3.2 3.2 0.00 0.00 0.03 70 1015.2
20260906174632 30 200 3.2 3.2 0.00 0.00 0.03 72 1015.6
20260906173632 29 208 3.2 3.2 0.00 0.00 0.03 73 1015.6
20260906172632 29 214 3.2 3.2 0.00 0.00 0.03 73 1015.6
20260906172132 29 199 3.2 3.2 0.00 0.00 0.03 74 1015.9
20260906171132 29 204 3.2 3.2 0.00 0.00 0.03 73 1015.9
20260906170632 29 214 3.2 3.2 0.00 0.00 0.03 73 1015.9
20260906165632 28 231 3.2 3.2 0.00 0.00 0.03 75 1015.9
20260906163132 27 276 1.6 1.6 0.00 0.00 0.03 79 1016.3
20260906162632 27 289 1.6 1.6 0.00 0.00 0.03 81 1016.3
20260906162132 27 308 1.6 1.6 0.00 0.00 0.03 83 1016.3
20260906161132 27 281 1.6 1.6 0.00 0.00 0.03 83 1016.3
20260906160132 27 316 3.2 3.2 0.03 0.00 0.03 85 1016.6
20260906155132 26 316 1.6 1.6 0.03 0.00 0.03 86 1016.6
20260906153632 26 315 1.6 1.6 0.03 0.00 0.03 86 1016.6
20260906153132 26 315 1.6 1.6 0.03 0.00 0.03 86 1016.9
20260906152632 26 315 1.6 1.6 0.03 0.00 0.03 86 1016.6
20260906151632 27 315 3.2 3.2 0.03 0.00 0.03 85 1015.9
20260906151132 27 315 3.2 3.2 0.03 0.00 0.03 84 1015.9
20260906150632 27 314 3.2 3.2 0.03 0.00 0.00 82 1015.9
20260906145632 27 306 3.2 3.2 0.00 0.00 0.00 82 1015.9
20260906144632 27 282 3.2 3.2 0.00 0.00 0.00 82 1015.6
20260906143132 27 168 3.2 3.2 0.00 0.00 0.00 83 1015.9
20260906142632 26 211 3.2 3.2 0.00 0.00 0.00 83 1015.9
20260906135632 26 254 3.2 3.2 0.00 0.00 0.00 84 1015.9
20260906134632 26 289 3.2 3.2 0.00 0.00 0.00 85 1016.3
20260906134132 26 245 3.2 3.2 0.00 0.00 0.00 85 1015.9
20260906133132 26 297 1.6 1.6 0.00 0.00 0.00 86 1015.9
20260906132132 25 285 1.6 1.6 0.00 0.00 0.00 88 1015.9
20260906131132 25 304 1.6 1.6 0.00 0.00 0.00 89 1015.9
20260906130132 24 268 1.6 1.6 0.00 0.00 0.00 90 1015.9
20260906125132 24 273 1.6 1.6 0.00 0.00 0.00 91 1015.6
20260906124132 23 338 1.6 1.6 0.00 0.00 0.00 92 1015.6
20260906123132 23 318 1.6 1.6 0.00 0.00 0.00 92 1015.2
20260906122132 23 306 1.6 1.6 0.00 0.00 0.00 92 1015.2
20260906121132 23 325 1.6 1.6 0.00 0.00 0.00 92 1015.2
20260906115132 23 327 1.6 1.6 0.00 0.00 0.00 92 1014.9
20260906114632 23 319 1.6 1.6 0.00 0.00 0.00 92 1014.9
20260906111632 23 307 0.0 0.0 0.00 0.00 0.00 92 1014.9
20260906110132 23 322 0.0 0.0 0.00 0.00 0.00 91 1015.2
20260906105132 23 328 0.0 0.0 0.00 0.00 0.00 91 1014.9
20260906104132 23 315 1.6 1.6 0.00 0.00 0.00 91 1014.9
20260906103132 23 279 1.6 1.6 0.00 0.00 0.00 91 1014.6
20260906102132 23 267 1.6 1.6 0.00 0.00 0.00 91 1014.6
20260906100632 23 328 1.6 1.6 0.00 0.00 0.00 91 1014.6
20260906100132 23 321 1.6 1.6 0.00 0.00 0.00 91 1014.6
20260906095632 23 316 1.6 1.6 0.00 0.00 0.00 91 1014.6
20260906093632 23 324 0.0 0.0 0.00 0.00 0.00 91 1014.6
20260906092632 23 289 0.0 0.0 0.00 0.00 0.00 91 1014.6
20260906091132 23 0 0.0 0.0 0.00 0.00 0.00 90 1014.6
20260906090632 23 241 0.0 0.0 0.00 0.00 0.00 90 1014.6
20260906085632 23 331 0.0 0.0 0.00 0.00 0.00 89 1014.9
20260906084632 24 328 1.6 1.6 0.00 0.00 0.00 88 1014.6
20260906084132 24 312 1.6 1.6 0.00 0.00 0.00 88 1014.6
20260906083132 24 264 1.6 1.6 0.00 0.00 0.00 87 1014.6
20260906082632 25 329 1.6 1.6 0.00 0.00 0.00 87 1014.6
20260906082132 25 317 1.6 1.6 0.00 0.00 0.00 86 1014.6
20260906081132 25 291 1.6 1.6 0.00 0.00 0.00 86 1014.6
20260906080632 25 280 1.6 1.6 0.00 0.00 0.00 85 1014.6
20260906075632 25 262 1.6 1.6 0.00 0.00 0.00 85 1014.2
20260906074632 25 272 1.6 1.6 0.00 0.00 0.00 84 1014.6
20260906073632 25 299 1.6 1.6 0.00 0.00 0.00 84 1014.6
20260906072132 25 274 1.6 1.6 0.00 0.00 0.00 83 1014.6
20260906071132 26 279 1.6 1.6 0.00 0.00 0.00 83 1014.6
20260906070632 26 277 1.6 1.6 0.00 0.00 0.00 82 1014.6
20260906065632 26 267 1.6 1.6 0.00 0.00 0.00 83 1014.6
20260906064632 26 289 1.6 1.6 0.00 0.00 0.00 82 1014.6
20260906063632 26 261 1.6 1.6 0.00 0.00 0.00 83 1014.6
20260906062632 26 295 1.6 1.6 0.00 0.00 0.00 84 1014.9
20260906061632 26 288 1.6 1.6 0.00 0.00 0.00 83 1014.9
20260906060632 26 287 1.6 1.6 0.00 0.00 0.00 83 1014.6
20260906060132 26 268 1.6 1.6 0.00 0.00 0.00 83 1014.9
20260906055132 26 280 1.6 1.6 0.00 0.00 0.00 83 1014.9
20260906053632 26 314 1.6 1.6 0.00 0.00 0.00 83 1014.6
20260906053132 26 316 1.6 1.6 0.00 0.00 0.00 83 1014.9
20260906052132 26 316 1.6 1.6 0.00 0.00 0.00 82 1014.9
20260906051132 26 316 1.6 1.6 0.00 0.00 0.00 81 1014.9
20260906050632 26 316 1.6 1.6 0.00 0.00 0.00 81 1014.9
20260906045132 27 316 1.6 1.6 0.00 0.00 0.00 81 1014.9
20260906044132 27 315 1.6 1.6 0.00 0.00 0.00 80 1014.6
20260906043132 27 316 1.6 1.6 0.00 0.00 0.00 80 1014.9
20260906041632 27 240 1.6 1.6 0.00 0.00 0.00 79 1014.9
20260906040632 27 252 1.6 1.6 0.00 0.00 0.00 79 1014.9
20260906035132 28 258 1.6 1.6 0.00 0.00 0.00 78 1014.6
20260906034132 28 261 1.6 1.6 0.00 0.00 0.00 77 1014.6
20260906033632 28 240 1.6 1.6 0.00 0.00 0.00 77 1014.6
20260906033132 28 289 3.2 3.2 0.00 0.00 0.00 76 1014.6
20260906031632 28 211 3.2 3.2 0.00 0.00 0.00 76 1014.6
20260906031132 28 212 3.2 3.2 0.00 0.00 0.00 76 1014.2
20260906030132 28 217 1.6 1.6 0.00 0.00 0.00 76 1013.9
20260906024132 28 192 1.6 1.6 0.00 0.00 0.00 76 1013.5
20260906023632 28 212 1.6 1.6 0.00 0.00 0.00 76 1013.5
20260906022632 29 179 1.6 1.6 0.00 0.00 0.00 75 1013.5
20260906020632 29 172 1.6 1.6 0.00 0.00 0.00 74 1013.2
20260906015632 29 153 1.6 1.6 0.00 0.00 0.00 74 1013.2
20260906014632 30 143 1.6 1.6 0.00 0.00 0.00 74 1013.2
20260906014132 30 158 1.6 1.6 0.00 0.00 0.00 74 1012.9
20260906013632 30 148 1.6 1.6 0.00 0.00 0.00 74 1012.9
20260906012632 30 181 1.6 1.6 0.00 0.00 0.00 74 1012.9
20260906011632 30 213 1.6 1.6 0.00 0.00 0.00 74 1012.9
20260906011132 30 210 1.6 1.6 0.00 0.00 0.00 73 1012.9
20260906010132 30 215 1.6 1.6 0.00 0.00 0.00 72 1012.9
20260906004632 31 229 1.6 1.6 0.00 0.00 0.00 71 1012.5
20260906003632 31 318 1.6 1.6 0.00 0.00 0.00 69 1012.5
20260906003132 31 315 1.6 1.6 0.00 0.00 0.00 69 1012.5
20260906002632 32 315 1.6 1.6 0.00 0.00 0.00 68 1012.5
20260906001632 32 121 1.6 1.6 0.00 0.00 0.00 65 1012.5
20260906000632 32 261 1.6 1.6 0.00 0.00 0.00 65 1012.5
20260906000132 32 276 1.6 1.6 0.00 0.00 0.00 65 1012.5
20260905234632 32 246 3.2 3.2 0.00 0.00 0.00 64 1012.5
20260905233632 32 243 1.6 1.6 0.00 0.00 0.00 64 1012.5
20260905232632 32 267 1.6 1.6 0.00 0.00 0.00 64 1012.5
20260905232132 32 248 1.6 1.6 0.00 0.00 0.00 64 1012.5
20260905231132 33 289 1.6 1.6 0.00 0.00 0.00 63 1012.5
20260905230132 33 242 3.2 3.2 0.00 0.00 0.00 62 1012.2
20260905225632 33 266 3.2 3.2 0.00 0.00 0.00 61 1012.2
20260905224632 33 220 3.2 3.2 0.00 0.00 0.00 61 1012.2
20260905224132 33 211 3.2 3.2 0.00 0.00 0.00 60 1012.2
20260905223132 33 223 3.2 3.2 0.00 0.00 0.00 61 1012.2
20260905221132 33 238 3.2 3.2 0.00 0.00 0.00 60 1011.9
20260905220632 33 225 3.2 3.2 0.00 0.00 0.00 60 1011.9
20260905215632 33 242 3.2 3.2 0.00 0.00 0.00 59 1012.2
20260905214632 33 228 3.2 3.2 0.00 0.00 0.00 59 1012.2
20260905212632 33 262 3.2 3.2 0.00 0.00 0.00 57 1012.9
20260905211632 33 230 3.2 3.2 0.00 0.00 0.00 58 1012.9
20260905211132 33 232 3.2 3.2 0.00 0.00 0.00 56 1012.9
20260905210632 33 219 3.2 3.2 0.00 0.00 0.00 57 1012.9
20260905205632 33 236 3.2 3.2 0.00 0.00 0.00 58 1013.2
20260905205132 33 238 3.2 3.2 0.00 0.00 0.00 56 1013.2
20260905204632 33 291 3.2 3.2 0.00 0.00 0.00 57 1013.2
20260905202632 32 320 3.2 3.2 0.00 0.00 0.00 58 1013.5
20260905202132 32 8 3.2 3.2 0.00 0.00 0.00 60 1013.9
20260905201132 32 241 3.2 3.2 0.00 0.00 0.00 59 1014.6
20260905200632 33 325 3.2 3.2 0.00 0.00 0.00 58 1014.6
20260905200132 32 11 3.2 3.2 0.00 0.00 0.00 58 1014.6
20260905195132 32 276 3.2 3.2 0.00 0.00 0.00 61 1014.6
20260905194632 32 229 3.2 3.2 0.00 0.00 0.00 61 1014.6
20260905193632 32 321 3.2 3.2 0.00 0.00 0.00 61 1014.6
20260905192632 32 11 4.8 4.8 0.00 0.00 0.00 63 1014.6
20260905191632 32 257 4.8 4.8 0.00 0.00 0.00 64 1014.9
20260905190632 31 27 4.8 4.8 0.00 0.00 0.00 65 1015.2
20260905185632 31 49 6.4 6.4 0.00 0.00 0.00 64 1015.6
20260905184632 31 26 4.8 4.8 0.00 0.00 0.00 66 1015.6
20260905183632 30 36 4.8 4.8 0.00 0.00 0.00 66 1015.9
20260905181632 30 53 6.4 6.4 0.00 0.00 0.00 68 1015.9